Location: Cassano d�Adda
(45.5333°N, 9.5167°E)
Time: 09:39:22
(UTC+00:00)

CZ-4 R/B - Pass Details

Date: 08 December 2019
Orbit: 579 x 590 km, 97.8° (Epoch: 27 January)

Event Time Altitude Azimuth Distance (km) Brightness Sun altitude
Rises 17:35:18 0° 167° (SSE) 2,807 7.9 -19.7°
Reaches altitude 10° 17:37:26 10° 168° (SSE) 1,913 7.1 -20.0°
Maximum altitude 17:41:36 84° 254° (WSW) 600 4.4 -20.7°
Drops below altitude 10° 17:45:48 10° 346° (NNW) 1,931 7.1 -21.5°
Sets 17:47:58 0° 347° (NNW) 2,837 8.0 -21.8°
